Theta_e
311 311 311 310 310 310 310 310 310 310 310 310 310 310 310 310 310 310 310 311 313 314 315 315 315 316 317 317 315 315 315 315 315 314 315 316 316 316 316 317 318 318 318 318 318 317 316 316 316 316 317 318 318 320 322 321 321 322 324 324 323 324 324 324 325 322 322 322 319 317 317 317 317 317 316 316 316 316 316 316 316 316 316 316 316 315 315 316
311 310 310 310 310 310 310 310 310 310 310 310 310 310 310 310 310 310 310 310 310 312 313 315 315 315 315 317 317 316 315 315 315 315 315 316 316 316 315 317 318 318 317 318 318 318 317 318 318 317 317 319 320 321 323 322 320 322 325 325 324 325 324 322 321 320 320 320 319 318 318 317 317 317 315 316 316 315 315 315 316 316 315 315 315 314 314 315
310 310 310 310 310 310 310 310 310 310 310 310 310 310 310 310 310 310 310 310 310 310 311 313 314 315 314 315 317 317 316 315 315 316 316 316 316 315 315 316 318 318 317 317 318 318 318 318 318 318 317 319 320 322 322 322 321 320 322 323 325 324 322 321 320 320 319 319 318 318 318 317 317 317 315 315 316 316 316 315 315 315 316 315 315 314 314 314
310 310 310 311 311 311 311 311 311 311 310 310 310 310 310 310 310 310 310 310 310 310 310 311 312 313 314 314 316 317 316 316 318 319 318 317 317 316 315 315 317 318 318 317 318 318 319 319 318 318 318 318 319 322 322 321 321 320 321 322 323 321 322 321 319 319 318 317 317 317 318 317 317 317 315 315 316 316 316 316 316 316 316 316 315 315 315 314
310 310 310 311 311 311 311 311 311 311 311 311 311 310 310 310 310 310 310 310 310 310 310 310 310 311 313 314 315 316 317 320 321 321 319 318 317 316 315 315 316 317 318 318 317 318 318 318 318 317 318 319 320 321 322 321 321 321 321 321 321 320 321 319 318 318 317 316 316 315 316 317 317 317 316 315 316 316 317 318 317 317 317 316 316 316 315 315
310 310 311 311 311 312 312 312 312 312 312 312 312 311 312 311 311 311 311 310 310 310 310 310 310 310 311 312 315 316 317 320 321 319 318 317 317 316 315 315 315 316 316 317 317 317 317 318 318 318 318 318 320 321 321 321 320 320 320 320 320 319 319 319 318 317 316 315 315 315 315 316 316 316 316 315 315 316 317 318 318 317 317 317 316 316 316 315
310 310 311 311 311 312 312 312 312 312 312 312 312 312 313 312 312 312 312 312 311 311 311 311 311 311 311 312 314 315 316 318 317 317 317 317 317 316 315 315 315 315 315 316 317 317 317 318 318 319 319 319 319 320 320 320 318 318 319 318 319 319 318 319 318 316 315 315 315 315 315 315 315 316 316 316 316 316 316 317 317 317 317 317 317 316 316 315
310 310 310 311 311 311 312 312 313 313 313 313 313 313 313 313 314 313 313 313 313 312 312 312 311 311 311 311 313 316 317 316 316 317 317 317 317 316 315 314 314 315 315 315 316 316 317 318 319 319 319 320 319 319 319 318 318 318 318 318 318 318 318 317 317 316 315 314 314 315 314 314 315 315 315 315 316 316 316 316 316 316 316 316 316 315 315 315
310 310 310 310 311 311 311 312 312 312 313 313 313 313 313 313 314 314 314 314 313 313 312 312 312 311 311 312 315 318 319 319 319 319 318 317 317 316 315 314 314 314 314 315 315 316 317 317 318 319 319 319 319 319 318 318 318 317 317 317 317 316 317 317 317 316 315 315 314 314 314 314 314 315 315 315 316 316 316 316 316 316 316 315 315 314 314 314
310 310 310 310 310 311 311 311 311 312 312 313 313 313 313 313 314 314 314 314 314 313 313 313 312 312 312 312 316 319 319 320 320 319 317 316 316 316 316 316 315 314 313 314 315 316 316 317 318 319 318 317 317 318 318 318 318 316 316 315 315 315 315 316 316 316 316 315 314 314 314 314 314 314 315 315 316 316 316 316 316 316 315 315 314 314 314 314
310 310 310 310 310 311 311 311 311 312 312 312 313 313 313 313 314 314 314 314 315 314 313 313 312 312 312 312 317 319 317 318 317 316 315 314 315 316 317 317 316 316 314 314 315 315 316 316 317 317 317 317 317 318 318 317 316 316 315 315 314 315 315 316 315 316 316 315 315 314 314 314 314 314 315 315 316 316 316 316 316 316 316 315 315 314 313 313
311 311 311 311 311 311 312 312 312 313 313 314 314 314 314 314 314 314 314 314 314 314 314 313 312 312 312 313 316 317 316 316 315 315 314 314 314 315 316 317 316 316 314 314 315 315 315 315 316 316 317 317 317 318 317 316 315 315 314 314 315 315 316 316 316 316 315 315 315 314 314 314 314 314 314 315 315 315 315 315 316 316 315 315 315 314 314 313
313 313 313 313 313 313 313 313 314 314 314 315 315 315 314 314 314 314 314 314 314 315 314 314 312 311 312 314 316 315 315 316 315 314 313 313 314 314 315 316 316 315 314 313 314 315 315 314 315 315 316 317 317 317 316 315 315 315 314 315 315 316 316 317 317 317 315 314 314 314 315 315 315 314 315 316 316 315 315 315 315 316 315 315 314 314 314 314
312 313 313 314 314 314 315 315 315 315 315 315 315 315 315 315 315 315 315 315 314 315 314 314 313 311 313 315 315 316 316 315 315 315 314 313 313 314 315 315 315 316 314 313 313 314 314 314 314 315 315 316 316 316 315 316 315 315 315 316 317 316 317 318 317 317 315 314 314 314 314 315 315 315 316 317 316 315 315 314 315 315 315 315 314 314 314 314
308 309 310 311 312 313 314 314 315 315 315 315 316 315 315 315 315 315 315 315 315 315 314 314 313 312 315 316 316 316 316 316 316 315 314 313 313 314 314 315 315 315 315 314 313 313 313 313 314 315 315 315 315 315 315 317 316 315 316 318 320 318 318 318 316 316 316 313 312 314 315 315 315 316 317 317 316 315 314 314 314 314 315 315 314 314 314 314
307 307 307 307 308 309 310 311 311 312 313 314 314 314 315 314 314 314 314 314 314 314 314 314 314 313 315 316 316 317 317 316 316 315 315 314 313 314 314 315 315 314 314 313 313 313 313 313 314 315 315 314 315 316 317 318 319 318 318 318 320 319 318 319 316 314 315 314 312 314 315 315 315 316 317 316 316 315 314 314 315 314 315 315 314 315 314 313
309 309 309 309 309 309 309 309 309 310 310 311 311 311 311 312 312 312 312 311 311 311 312 314 316 315 315 315 316 317 317 316 316 316 315 315 314 314 314 314 314 314 313 312 312 312 313 313 315 316 315 315 315 317 319 320 319 320 320 319 320 320 318 319 318 314 314 314 313 313 314 314 315 315 315 316 316 315 314 314 315 315 315 315 315 315 314 314
311 311 312 312 312 312 312 311 312 311 311 311 311 311 311 310 310 310 310 310 310 312 312 313 316 316 316 316 316 316 317 317 316 315 315 314 314 314 314 314 314 313 313 313 313 313 314 314 315 317 316 316 315 316 319 320 318 318 320 318 318 319 318 318 318 315 315 315 314 314 313 313 314 315 315 315 315 314 314 314 315 315 315 315 315 314 314 314
313 313 313 313 313 313 313 313 313 313 313 313 312 312 311 311 312 312 311 311 311 315 315 314 315 317 317 317 317 316 316 316 314 314 314 314 314 314 314 313 313 313 313 315 315 314 314 316 318 320 318 316 316 316 318 318 317 317 318 318 317 317 317 318 318 316 314 315 315 314 314 314 314 315 315 315 316 315 314 314 314 314 314 314 314 314 314 314
313 313 313 313 313 313 313 314 314 314 314 314 314 313 312 313 315 315 314 313 314 315 316 315 316 316 316 317 317 316 315 315 314 314 314 314 314 314 313 312 314 314 314 317 317 315 315 318 320 320 318 316 317 317 317 317 317 318 318 319 318 318 317 316 317 316 314 315 315 315 315 314 315 315 315 315 315 315 314 314 314 314 314 314 314 314 315 315
311 311 312 312 312 312 312 313 313 313 313 313 313 312 312 313 314 315 313 313 313 313 313 314 315 316 316 317 317 316 316 315 315 314 314 315 314 314 313 312 314 315 315 316 318 316 317 319 319 317 316 317 317 317 318 318 318 318 319 319 318 318 317 316 317 316 313 314 315 315 316 315 315 315 315 315 315 315 314 313 314 314 314 314 314 315 315 315
310 310 310 311 311 311 311 311 311 311 311 311 311 310 310 310 311 311 311 311 311 311 311 312 313 315 315 315 316 315 315 314 314 314 314 314 313 313 313 312 314 316 315 315 317 318 318 318 317 316 317 317 317 318 318 318 319 319 319 319 318 317 317 317 317 315 312 314 315 315 315 315 315 315 315 315 315 315 315 315 314 314 315 314 315 315 315 315
309 309 309 310 311 311 311 311 310 310 310 310 310 309 308 309 309 309 309 310 311 310 311 311 312 313 313 313 313 313 313 313 314 314 314 314 313 313 313 313 313 315 316 315 316 318 318 318 316 317 317 316 316 317 318 318 318 319 318 318 317 316 318 317 316 314 311 312 315 315 314 314 314 314 314 314 314 315 315 315 315 315 315 315 315 315 315 316
309 308 308 309 310 310 311 310 310 310 309 309 309 308 308 308 308 307 309 311 312 311 311 311 312 312 312 311 311 312 312 312 312 313 314 314 313 312 313 314 314 314 315 315 316 317 318 317 317 317 318 317 317 317 319 318 316 318 320 318 316 316 317 317 317 317 314 313 313 314 314 314 315 315 315 315 315 315 314 314 315 315 315 315 315 315 316 316
311 310 309 308 308 309 309 309 310 309 308 309 309 309 308 308 308 309 311 314 314 313 313 313 313 312 312 311 311 312 312 312 312 313 314 314 313 313 313 313 314 314 314 314 316 317 317 317 317 318 319 320 320 318 319 320 317 316 320 319 317 316 316 317 319 320 320 319 315 315 316 316 318 318 317 318 318 316 314 314 314 314 315 315 315 315 315 315
315 314 313 312 311 310 309 312 312 308 308 310 310 310 310 309 311 312 313 316 317 316 315 315 315 314 313 312 312 312 312 312 312 313 314 314 313 313 313 313 314 314 315 315 315 316 316 316 318 319 319 321 322 319 319 321 317 315 322 324 319 318 320 321 321 321 324 323 316 316 319 317 317 317 317 318 319 318 316 316 315 313 314 315 315 315 315 315
318 317 317 316 316 314 313 313 311 308 310 312 310 310 310 311 311 311 314 318 318 318 317 315 315 315 314 313 312 312 312 312 313 313 313 313 313 313 313 313 314 314 315 316 316 317 317 316 319 320 320 322 322 319 318 319 317 317 324 326 320 318 322 322 322 323 323 320 316 318 320 317 316 315 316 318 318 318 317 317 316 314 313 314 314 315 314 315
320 319 319 318 318 318 316 315 312 309 309 309 309 309 310 310 310 311 315 319 319 319 318 314 313 315 314 313 312 312 311 311 314 314 312 313 313 313 313 313 313 314 314 315 316 318 320 321 321 321 320 320 319 319 321 321 318 319 321 320 319 319 320 319 320 321 320 317 318 320 319 318 317 316 317 317 316 317 316 316 316 314 313 313 314 315 314 315
322 321 321 320 320 320 319 318 316 313 309 308 309 310 310 310 310 312 316 318 320 319 316 314 313 313 313 312 312 312 311 311 313 312 310 312 312 311 312 312 312 313 314 314 315 318 320 317 316 319 320 319 317 320 324 324 320 318 319 318 318 318 316 317 318 318 317 316 317 320 319 317 316 318 318 316 316 316 315 315 316 314 313 314 314 314 315 315
322 322 323 322 322 321 320 320 319 317 313 309 309 310 309 310 312 315 317 316 318 318 314 313 313 313 312 312 313 312 311 311 310 310 310 311 311 311 311 312 311 313 315 316 316 317 314 310 311 317 318 315 316 315 314 318 317 315 317 317 318 318 315 315 315 315 317 317 316 319 319 316 317 319 319 316 316 316 316 315 315 314 313 314 315 315 316 316
322 323 324 323 323 322 321 321 320 320 317 310 309 310 310 313 313 315 317 315 316 318 315 313 313 314 312 314 316 313 311 311 309 310 311 310 311 310 310 313 313 314 316 317 316 316 314 312 312 316 313 311 317 316 310 311 313 315 317 315 317 320 318 317 315 315 317 317 318 320 319 316 317 318 317 316 316 316 316 315 315 317 314 314 315 316 316 316
322 323 323 324 324 323 322 321 321 321 319 312 309 311 312 315 314 314 315 315 316 318 318 317 315 315 314 315 317 315 313 314 311 310 312 312 312 311 311 314 315 316 318 317 317 318 318 315 314 315 313 311 318 318 312 310 312 317 318 315 318 319 319 320 319 321 320 318 320 322 320 317 316 316 316 316 316 316 316 315 315 317 315 314 316 316 316 317
323 322 323 323 323 324 323 323 322 322 321 314 308 311 313 314 317 318 316 315 318 319 319 319 317 316 317 317 319 317 316 317 312 310 313 314 313 313 312 313 315 318 320 319 319 321 323 320 316 316 315 313 315 315 315 316 314 314 316 317 320 320 318 319 321 323 322 319 319 319 320 320 317 316 318 316 316 316 315 314 314 315 315 315 316 317 317 317
324 323 323 322 322 323 323 323 323 322 322 316 311 312 312 312 318 322 319 317 318 318 319 320 318 317 318 319 320 320 319 319 314 311 314 316 315 316 315 314 314 316 318 318 318 320 322 320 318 319 317 314 313 313 315 319 314 311 314 317 319 320 318 318 320 321 320 320 318 316 320 322 317 318 320 317 315 314 313 315 315 315 315 315 316 317 317 316
324 324 324 323 323 323 323 322 322 322 321 317 313 313 313 314 317 319 319 318 317 317 316 317 318 320 320 320 321 320 319 320 317 314 315 316 316 317 317 315 314 314 317 318 318 318 318 319 319 317 315 313 314 314 315 320 318 314 314 316 317 319 318 317 320 319 317 319 318 316 320 320 314 317 318 316 317 314 313 314 314 314 315 315 315 317 316 316
324 323 323 323 323 323 323 322 322 322 320 315 313 312 313 315 318 318 317 316 316 318 316 315 319 321 320 321 322 320 318 319 319 317 317 316 316 316 317 317 315 313 316 318 319 319 317 320 321 315 313 312 310 313 315 318 319 316 315 317 317 319 318 318 320 319 316 318 317 316 318 317 314 316 316 315 317 316 314 314 313 313 314 314 315 315 315 315
323 323 322 322 322 322 322 322 322 321 318 313 312 313 314 315 316 316 316 315 314 315 317 317 319 320 318 318 322 322 319 318 319 319 318 318 317 317 316 317 316 314 315 316 318 321 318 318 321 316 315 311 305 307 313 312 314 317 318 318 317 319 319 317 318 320 319 319 317 316 316 315 315 316 316 315 315 315 315 316 314 313 312 312 313 315 314 314
322 321 321 321 321 321 321 321 320 317 313 312 313 315 315 314 314 314 315 315 314 314 315 316 318 319 319 317 320 322 319 318 319 318 318 319 319 318 317 318 318 315 314 314 317 322 320 317 319 316 314 311 306 308 314 311 310 314 315 314 316 319 320 318 317 318 319 317 316 316 316 314 314 315 315 315 315 314 314 314 314 314 313 311 312 314 314 313
320 319 318 319 320 319 320 320 318 313 311 311 312 314 315 315 314 314 314 314 314 314 314 315 316 317 318 318 319 321 319 317 319 318 317 317 318 319 319 319 320 317 314 314 316 319 318 316 318 315 311 311 309 311 316 316 312 311 311 312 313 315 317 319 318 317 317 316 315 316 315 314 315 315 315 316 314 314 314 314 315 315 313 311 312 314 314 313
318 317 318 319 319 318 319 318 314 311 311 312 312 313 315 315 315 315 314 313 313 313 313 315 316 316 317 318 317 318 318 319 319 317 317 317 317 319 318 317 320 319 315 315 316 317 317 316 316 314 311 312 313 312 315 317 315 313 313 313 313 313 314 316 317 316 317 315 315 315 315 314 315 316 318 317 314 313 314 315 317 315 312 311 313 313 313 313
316 316 317 318 317 317 317 314 311 310 311 313 314 313 314 314 314 314 315 314 312 310 310 313 315 314 314 315 314 315 317 319 320 317 317 316 315 317 318 316 318 319 317 318 318 317 318 317 315 316 314 314 315 314 314 314 315 314 313 313 313 313 314 314 315 316 316 315 315 315 315 314 314 317 318 315 314 315 315 316 319 315 311 312 313 313 313 313
315 316 316 316 316 316 315 311 309 310 311 312 314 313 313 314 314 314 314 314 312 310 309 310 311 312 311 312 312 313 315 319 320 318 316 317 315 316 316 313 313 315 318 320 318 316 318 317 315 316 316 315 316 317 315 314 314 315 314 314 313 313 313 314 314 315 315 315 315 315 315 314 315 318 317 314 314 315 314 317 319 315 312 313 313 312 313 312
314 315 315 315 315 316 315 311 309 309 310 311 312 312 313 314 314 314 314 314 313 311 310 310 310 311 311 311 312 312 313 316 318 315 314 315 315 314 313 311 311 312 315 317 317 314 315 316 314 314 316 316 315 316 314 312 311 313 315 315 314 313 313 314 314 313 314 315 315 315 315 314 315 318 318 316 315 314 312 313 314 311 311 313 313 312 313 312
313 314 314 314 314 315 315 314 312 310 309 310 310 311 312 313 313 314 314 314 314 313 312 312 311 311 312 311 311 311 311 313 316 315 313 313 313 312 311 310 311 312 312 314 315 314 314 315 315 314 315 315 315 315 314 311 310 312 313 314 314 314 314 314 314 313 314 314 314 314 314 314 314 318 319 317 316 315 313 311 310 310 310 311 312 311 312 312
310 312 313 313 313 314 315 315 314 313 311 310 310 311 311 312 313 313 313 314 314 313 312 313 312 312 312 312 311 312 312 313 314 315 314 313 313 311 311 311 311 311 311 311 312 312 313 316 317 315 314 314 315 315 316 316 313 311 312 312 312 313 314 314 314 314 314 314 314 314 314 313 313 314 316 315 315 314 313 311 310 310 311 311 311 311 311 311
310 312 313 312 311 312 313 314 315 315 313 312 311 311 311 312 313 313 313 314 314 313 313 313 311 311 313 313 313 314 314 313 314 314 314 314 313 312 311 311 311 311 311 312 311 311 313 314 314 314 314 314 315 315 316 316 313 311 312 313 312 313 314 313 314 314 314 314 314 314 313 313 313 312 312 312 312 312 312 312 311 310 311 311 311 311 312 311
308 311 313 312 311 311 312 312 313 314 314 313 313 312 312 312 312 313 313 313 313 313 314 313 312 312 313 313 314 314 314 314 314 313 313 313 313 313 311 310 310 311 311 310 309 311 312 312 312 313 313 313 314 314 314 314 313 312 313 313 312 312 313 313 313 313 313 313 313 314 313 314 313 312 312 312 312 312 312 312 311 311 311 311 311 311 311 310
306 308 311 311 310 311 312 311 311 312 313 314 313 313 313 313 313 313 313 314 314 313 314 314 313 313 313 313 314 314 314 314 314 313 312 312 312 312 312 310 309 309 309 308 308 311 312 311 312 312 312 312 313 312 313 313 312 312 312 312 312 312 312 313 312 312 312 313 313 313 313 313 313 312 312 312 312 312 312 312 311 311 310 310 310 310 310 309
304 306 307 308 308 310 311 310 309 310 311 312 313 313 314 314 314 313 313 314 314 314 314 315 314 313 313 313 314 314 314 315 315 314 313 312 312 312 312 312 311 308 307 309 309 311 311 310 311 312 312 312 312 311 312 312 312 312 312 312 311 311 311 312 312 312 312 312 312 312 312 312 312 312 312 312 312 312 311 311 311 310 310 310 310 309 309 309
302 304 304 303 303 305 307 307 307 308 308 309 310 311 312 312 313 314 313 313 314 314 314 314 314 314 314 313 313 313 314 314 315 315 315 314 313 312 312 313 313 310 307 308 309 309 309 310 311 311 311 311 311 311 311 312 312 312 311 311 311 311 311 312 312 312 312 312 311 311 312 312 311 311 311 311 311 311 310 310 309 309 310 310 309 309 309 309
300 301 301 300 300 302 304 306 307 308 308 308 308 309 309 310 311 312 313 313 313 314 314 314 314 315 315 314 313 313 313 313 314 314 314 315 314 313 312 312 313 312 308 307 309 309 309 310 311 312 311 311 311 311 310 311 311 311 311 311 311 311 311 312 312 312 312 312 312 312 312 312 311 311 311 311 310 310 311 310 309 309 310 309 309 309 309 310
298 298 298 299 299 301 303 304 306 307 307 307 308 309 309 309 310 311 312 312 312 313 313 312 312 312 314 314 314 313 313 313 313 313 313 314 314 313 313 312 311 312 310 308 309 309 309 309 310 311 312 312 312 312 311 311 311 311 312 311 311 311 311 311 312 312 311 312 312 312 312 311 311 311 311 311 311 311 311 310 309 309 309 309 309 309 309 310
Wind_Speed
6 6 6 7 7 7 8 8 9 9 10 10 11 11 11 11 10 9 7 6 6 5 6 6 6 6 7 8 9 9 10 11 11 13 15 12 10 10 9 7 6 5 4 2 2 2 2 3 3 4 5 7 7 7 9 7 5 3 2 3 4 5 5 1 2 3 2 1 2 6 8 5 3 6 9 8 11 14 12 14 14 13 15 18 18 18 18 18
7 7 7 7 7 7 8 8 9 9 9 10 10 10 11 11 11 10 9 8 7 6 6 6 6 6 6 7 9 10 11 12 13 17 18 14 12 12 11 10 8 6 4 3 2 1 3 5 5 6 7 8 8 8 7 6 6 6 3 3 5 5 4 3 5 5 3 4 3 3 7 6 5 5 8 5 7 13 12 14 16 15 17 20 22 22 23 23
8 7 7 7 7 8 8 9 9 9 9 10 10 10 11 11 11 10 10 10 9 8 7 7 7 7 7 6 8 10 11 12 16 20 19 16 15 13 13 11 10 8 5 4 3 2 4 6 5 7 9 10 10 9 8 6 5 8 5 3 6 3 5 7 6 4 4 5 6 6 4 6 8 6 6 5 7 10 11 13 15 18 23 24 26 26 27 27
8 8 7 7 8 8 8 9 9 10 10 10 10 10 10 11 11 11 10 10 10 9 9 8 7 8 7 6 6 8 9 10 14 19 17 15 16 15 14 13 11 10 7 6 5 3 4 4 4 7 10 10 12 10 7 8 7 5 6 4 7 5 5 6 5 3 3 2 5 9 5 4 9 9 8 7 6 7 12 18 19 23 27 26 28 28 28 28
8 8 8 8 8 8 8 9 9 10 10 10 11 11 11 11 11 11 11 11 10 10 10 9 8 8 8 7 6 5 5 4 5 7 8 9 13 15 15 14 12 11 9 7 6 5 5 4 4 6 8 8 11 8 7 14 11 3 7 10 14 12 6 3 3 2 4 4 6 8 7 7 8 10 13 11 7 9 12 15 16 21 24 24 27 27 27 28
10 9 9 9 9 9 9 9 9 10 10 10 11 11 11 11 12 12 12 12 11 11 11 11 10 8 8 8 6 6 5 3 3 4 6 7 8 13 15 14 13 11 10 9 7 5 5 4 5 7 8 7 8 9 10 14 12 4 8 13 18 16 10 6 5 5 6 6 7 6 7 9 7 9 14 17 20 23 17 13 13 14 16 18 21 23 26 27
12 11 11 10 10 10 10 10 10 10 10 10 11 12 12 12 12 12 13 13 13 13 12 12 12 9 8 8 8 7 11 12 13 13 14 12 9 10 13 14 13 12 11 10 8 5 5 6 8 10 8 7 7 9 7 7 9 6 6 11 16 16 11 11 9 9 9 9 10 9 8 9 9 9 12 21 28 30 25 20 20 19 17 16 18 21 24 25
14 13 13 13 12 12 12 12 12 11 11 11 11 12 13 13 13 13 13 14 14 14 14 14 13 11 9 8 8 7 14 18 18 17 17 15 12 11 12 14 13 12 11 11 9 6 7 8 11 11 7 5 6 6 3 2 7 8 8 11 13 11 11 12 12 13 12 12 13 11 10 14 17 13 14 27 32 28 25 22 23 25 23 22 22 24 25 26
16 16 15 15 15 15 14 14 14 13 13 13 12 12 13 14 14 15 15 15 15 14 15 15 14 12 10 8 6 6 12 15 15 15 15 14 13 13 14 15 14 13 12 12 10 9 8 8 9 7 4 7 10 9 6 3 4 5 7 10 10 12 14 14 15 14 13 14 12 9 12 17 20 14 16 33 35 29 28 24 24 24 25 25 25 27 28 29
18 18 17 17 17 16 16 16 16 16 15 15 14 14 14 15 15 16 16 16 16 16 15 15 15 12 10 8 4 5 9 11 11 12 12 12 13 14 16 17 16 16 14 12 12 11 10 9 9 8 8 9 10 10 7 4 5 6 9 11 14 17 20 20 19 18 15 15 14 11 10 15 16 8 12 27 24 20 24 25 27 26 27 28 26 27 29 30
20 19 19 18 18 18 18 17 17 17 17 17 17 16 16 16 16 16 17 17 17 17 16 15 15 12 11 9 7 9 13 13 12 13 14 14 13 14 15 16 17 17 15 13 13 12 12 12 12 10 8 5 5 8 7 7 8 9 9 11 15 18 22 22 20 20 16 11 16 15 8 12 10 6 18 30 19 12 16 19 23 26 28 29 28 27 28 30
22 22 21 21 20 20 20 19 19 19 19 19 19 19 18 18 18 18 18 18 18 18 17 17 15 12 11 11 15 17 19 18 17 17 17 17 16 15 13 14 15 15 16 14 13 13 13 14 12 9 7 5 6 7 5 6 8 8 6 7 13 14 15 20 20 21 16 6 13 12 5 10 9 13 30 38 27 19 17 16 19 23 27 29 29 28 28 30
24 24 24 24 23 23 23 22 22 22 21 22 21 20 20 20 20 19 19 19 19 18 18 17 15 13 9 13 20 21 19 19 19 19 19 19 18 17 15 14 13 14 15 15 15 15 14 13 11 11 11 8 6 6 7 9 8 7 6 5 10 9 9 17 19 19 14 6 13 12 2 8 9 20 31 32 26 23 21 20 21 22 25 28 29 30 30 31
27 27 27 27 27 26 26 26 25 24 24 24 23 22 22 22 22 21 21 20 20 20 19 18 16 12 9 15 23 21 19 21 20 21 21 20 19 17 17 15 14 14 15 16 17 16 14 12 10 10 11 11 9 8 9 9 5 4 5 5 5 4 6 10 7 13 11 7 16 12 4 8 8 16 22 23 22 21 22 23 23 24 26 28 30 31 32 33
28 28 28 29 29 29 29 29 29 28 27 27 26 25 24 24 24 23 22 22 22 21 20 19 16 11 10 18 24 20 19 20 20 22 20 19 19 16 15 16 15 15 14 15 15 14 13 10 9 8 7 10 10 6 4 5 5 3 3 4 4 4 7 6 4 14 10 5 15 11 3 8 11 13 12 17 22 20 22 23 22 25 26 28 30 32 34 35
25 26 27 28 28 29 29 30 30 30 30 29 28 27 27 27 27 26 25 24 23 22 20 16 14 11 8 14 20 19 19 19 20 21 19 17 16 15 15 14 12 13 13 13 12 12 11 9 9 8 6 5 5 4 3 4 5 4 5 5 6 5 8 5 3 10 9 5 10 11 5 6 8 7 4 11 20 20 21 21 21 23 25 27 31 33 34 35
23 24 24 25 26 26 27 27 28 29 29 29 29 28 27 27 27 26 25 24 22 21 17 12 10 9 10 15 19 20 21 20 18 18 17 15 15 15 14 11 9 11 10 10 11 10 9 8 6 6 8 5 4 4 2 5 6 4 5 5 7 8 8 5 1 6 8 6 7 11 9 10 9 7 6 9 17 20 21 20 21 24 26 29 32 32 33 34
23 23 23 24 24 24 25 25 25 26 27 27 27 27 26 25 25 25 24 22 17 13 11 9 7 3 10 17 17 18 19 17 15 15 14 13 13 14 12 10 8 7 7 7 9 10 9 8 6 2 4 5 4 5 5 7 7 5 6 5 6 7 7 8 4 3 9 6 6 8 9 15 13 10 15 19 19 20 21 22 26 30 30 33 35 33 32 33
24 23 24 24 24 24 24 25 25 25 26 26 25 25 25 24 23 22 20 17 12 6 6 10 14 6 6 9 11 13 15 14 14 14 13 12 13 14 13 11 9 8 7 4 6 11 10 5 5 3 5 7 8 9 10 11 10 9 10 7 7 7 7 12 9 4 10 7 7 10 11 15 14 11 14 24 26 23 23 24 27 30 31 34 36 33 31 33
23 23 23 23 24 24 24 25 24 24 25 25 24 23 20 16 12 10 9 14 17 15 15 14 17 16 12 11 12 13 15 16 15 15 15 12 11 13 14 11 8 8 7 4 5 9 11 5 4 8 11 10 9 12 14 13 13 12 11 9 9 8 9 14 10 4 8 6 7 12 12 14 16 12 12 21 25 21 21 20 24 28 30 35 35 32 31 33
20 21 21 22 22 22 23 24 24 24 23 23 23 17 11 8 6 5 6 13 21 22 23 21 18 20 20 17 18 18 17 15 16 18 15 11 12 10 13 13 6 5 8 8 5 4 7 6 9 15 16 11 8 11 12 11 12 11 9 7 8 8 11 14 8 4 7 5 7 9 10 13 15 12 12 17 18 16 19 19 23 29 33 37 33 30 31 29
18 18 19 20 20 20 21 22 22 22 21 20 18 12 9 11 11 12 11 13 20 23 22 23 22 25 25 23 24 24 19 13 16 21 18 15 17 12 11 13 7 5 7 8 6 2 5 9 13 17 13 9 11 10 8 9 9 9 6 5 7 8 10 12 6 3 4 3 6 8 9 12 14 13 12 15 15 18 26 28 30 33 33 35 34 31 27 22
16 16 17 18 17 17 18 18 19 19 18 16 15 12 11 12 11 13 12 8 17 24 24 26 26 28 29 27 29 28 22 18 18 22 25 21 20 17 13 11 8 7 6 8 9 6 7 8 14 18 14 12 13 10 7 7 7 7 6 5 8 10 8 8 4 3 4 4 6 7 7 8 12 14 13 20 25 26 32 34 37 39 35 36 38 33 25 19
14 15 15 16 15 15 15 16 15 13 13 11 11 9 9 10 9 10 10 7 10 16 23 28 27 30 31 28 29 28 25 25 20 19 26 25 21 16 13 10 8 7 7 11 13 14 12 7 7 11 11 12 12 9 7 6 7 7 7 7 10 12 11 10 6 3 4 6 4 4 8 7 10 14 12 16 21 23 26 27 30 37 38 38 38 32 26 22
15 15 15 15 14 13 15 14 10 9 9 8 8 6 6 7 6 7 8 7 7 7 14 20 21 26 29 28 28 24 18 21 22 20 22 26 23 12 8 11 9 7 11 13 13 14 14 11 10 7 6 8 8 8 7 6 8 8 7 12 16 15 12 12 9 5 3 5 2 1 6 7 7 11 11 7 8 11 15 16 21 31 34 35 35 32 28 23
16 16 16 16 15 14 14 10 10 12 10 7 7 5 5 3 3 6 6 4 6 4 6 10 11 13 17 21 25 18 7 11 18 21 18 21 25 16 5 8 9 9 10 9 9 8 6 7 8 8 8 8 6 7 8 7 8 8 5 8 12 12 10 10 8 4 2 5 2 3 2 8 6 8 10 6 6 8 10 11 17 25 28 30 33 33 27 21
18 18 18 18 17 16 13 10 12 13 8 6 7 3 3 2 1 4 3 4 7 4 7 7 7 7 9 12 20 16 2 3 8 14 17 19 24 19 9 7 7 8 4 1 5 4 4 5 4 6 7 6 7 8 9 9 7 7 1 1 3 3 6 6 4 5 4 3 3 4 4 8 12 8 10 9 7 8 10 10 12 19 25 26 28 30 27 22
18 18 19 20 19 18 15 14 13 12 9 8 6 3 3 3 1 2 1 5 3 7 6 6 7 6 7 11 20 15 1 2 5 7 18 21 20 15 11 10 8 6 5 4 7 3 2 7 7 8 7 5 8 7 5 8 7 4 1 2 3 2 2 1 2 5 3 4 4 6 7 6 12 4 8 11 10 10 12 12 11 16 24 25 23 26 26 25
19 19 20 21 22 20 17 16 13 11 12 9 4 3 5 5 1 3 1 5 1 5 4 7 7 5 7 9 14 13 2 2 1 3 11 16 18 11 5 7 7 7 5 7 10 5 0 3 3 5 6 7 6 0 2 4 5 3 2 3 5 2 1 1 2 2 3 5 7 7 8 6 12 5 6 7 9 10 11 11 12 16 24 27 22 22 23 24
20 20 20 21 23 21 19 19 15 11 12 9 4 5 6 4 1 1 6 5 1 2 4 6 5 7 10 7 6 11 6 1 3 5 6 7 13 10 3 2 3 5 6 6 9 9 1 5 3 2 5 3 4 4 3 2 3 3 3 2 3 1 1 2 2 2 1 9 7 10 13 9 10 4 7 8 8 10 9 8 11 14 20 25 22 20 22 24
23 22 22 23 23 22 21 20 18 13 12 9 4 7 5 1 0 3 8 2 2 2 5 4 4 8 11 7 5 8 7 3 4 7 4 2 7 7 3 2 1 1 4 5 8 9 4 2 0 2 4 5 6 2 0 2 1 3 3 2 1 3 2 3 1 3 2 10 4 11 16 13 11 5 4 7 8 11 11 9 12 12 15 23 24 21 22 24
26 24 25 25 24 24 23 21 20 16 12 6 4 7 2 1 4 9 6 4 2 4 4 3 5 6 8 8 4 5 5 5 7 8 5 4 5 6 6 5 4 2 3 4 4 5 6 8 6 2 3 8 6 1 1 3 0 3 4 4 1 3 2 1 2 2 5 10 4 10 13 11 13 9 4 6 7 10 10 10 14 13 14 20 21 21 23 24
28 27 28 28 27 27 26 25 23 19 13 6 7 5 1 2 8 9 5 2 1 1 2 2 6 6 5 4 3 5 4 3 7 8 5 6 5 6 8 8 5 2 4 4 2 2 3 6 7 4 3 9 10 5 4 2 4 8 6 6 5 3 3 4 4 3 7 9 4 5 9 6 8 6 10 13 10 11 13 16 18 17 16 17 17 20 23 24
27 27 30 31 31 30 28 28 26 20 15 9 8 4 1 7 8 3 3 6 5 1 1 2 5 6 5 4 3 6 4 3 7 7 5 6 4 4 6 9 10 6 3 1 3 3 4 8 7 8 3 10 14 13 11 3 4 9 6 5 6 5 3 4 5 6 7 6 4 2 5 4 3 3 13 16 15 15 19 24 24 19 18 17 16 19 21 23
25 26 30 33 34 33 30 31 28 22 18 13 8 4 4 8 8 3 3 5 4 3 1 1 3 5 5 5 3 6 7 5 6 7 5 6 6 5 5 7 12 9 2 2 3 4 6 10 6 8 3 11 12 11 9 4 1 5 4 3 6 4 5 5 7 8 4 4 5 4 4 6 4 5 10 11 11 13 17 21 22 19 20 18 17 18 20 22
28 27 31 34 36 34 32 32 30 27 24 15 8 3 8 8 6 3 2 3 5 3 2 1 3 4 5 4 4 6 7 4 5 5 4 6 7 7 6 5 12 14 9 7 3 3 5 6 2 4 2 5 5 4 4 3 1 2 4 4 5 2 5 5 7 6 1 5 9 6 6 7 6 9 12 11 11 10 11 14 16 18 21 20 19 20 21 22
30 29 32 37 37 35 34 34 31 30 25 16 7 6 8 7 9 7 4 5 7 5 2 4 4 5 5 4 4 7 6 3 5 5 3 4 5 8 8 6 12 17 16 12 5 4 7 6 3 3 2 1 1 3 2 1 2 4 3 4 2 3 1 2 2 3 3 7 8 8 12 10 7 9 5 8 12 11 11 14 15 17 18 17 19 23 24 25
28 28 31 37 37 35 34 34 32 29 22 12 7 10 7 6 9 9 8 8 8 8 4 5 5 5 6 6 5 7 7 5 5 6 4 3 4 8 9 7 11 17 22 19 8 3 4 5 5 2 0 1 3 2 2 2 3 6 2 3 1 0 2 2 2 2 5 7 7 11 15 13 10 10 5 5 13 13 13 17 16 13 12 13 19 25 26 26
22 20 22 28 28 26 30 34 31 28 17 6 8 9 5 6 9 10 12 11 7 8 10 9 7 6 7 9 7 4 8 8 6 5 5 5 5 8 10 7 8 13 21 20 10 4 2 4 5 1 2 2 2 1 3 0 1 3 2 4 1 2 2 3 3 3 5 7 8 10 14 12 9 8 7 9 12 14 15 15 12 9 11 16 22 26 27 27
15 9 11 19 15 11 20 27 27 21 8 4 8 7 5 5 7 12 17 15 7 5 8 10 9 9 9 9 8 4 6 7 6 5 5 5 5 5 7 8 6 8 14 14 10 5 2 4 7 1 2 1 1 3 7 6 5 3 1 3 3 2 1 1 3 3 5 6 7 7 10 13 6 1 5 9 10 12 13 11 8 8 14 20 24 25 26 26
12 5 7 14 9 4 16 22 16 9 4 3 5 7 7 4 5 9 15 15 9 4 3 4 5 5 6 7 8 5 3 4 5 5 4 5 7 4 0 1 1 2 3 3 5 4 3 4 7 3 3 5 4 5 9 9 7 6 7 8 8 6 3 4 6 6 5 4 6 6 9 14 6 4 2 6 10 11 10 9 8 9 15 20 22 23 24 24
10 5 7 12 7 7 18 15 5 4 5 4 6 5 4 5 6 9 12 10 8 5 3 2 4 4 4 6 8 6 3 3 4 6 6 7 9 6 4 9 8 4 3 2 4 4 2 3 5 6 6 7 6 2 4 4 4 4 5 6 7 7 6 8 10 8 5 4 6 6 10 15 8 4 4 2 6 7 9 9 7 10 17 21 20 22 24 24
10 9 9 12 10 14 17 6 2 5 3 4 7 7 7 6 3 5 9 9 7 5 3 3 6 8 8 7 8 7 5 5 5 8 9 6 5 7 1 8 7 4 1 2 4 2 2 2 4 6 5 6 9 5 2 1 1 3 5 4 5 6 7 9 8 6 7 7 7 7 10 14 9 0 3 5 6 5 8 10 10 12 17 20 21 24 25 26
12 13 12 13 15 19 15 3 3 7 6 7 7 9 13 10 6 7 8 9 8 4 4 7 8 9 8 6 7 6 5 6 5 7 8 4 4 11 13 11 10 3 2 4 2 2 3 2 2 4 4 5 7 8 6 2 1 3 6 6 8 9 10 10 6 4 7 10 12 12 11 12 9 4 6 7 7 8 11 13 14 13 16 21 23 25 27 31
9 10 11 16 25 29 20 12 10 7 7 11 12 13 14 9 12 21 19 15 15 10 5 7 7 7 5 4 6 8 9 8 6 4 4 3 6 14 20 25 22 11 11 12 3 4 3 2 2 3 6 6 7 8 6 2 2 2 5 9 12 13 12 11 7 6 9 12 14 14 12 12 14 13 12 12 12 12 13 15 15 16 22 25 24 27 31 34
5 5 5 12 27 33 27 22 19 10 7 11 10 11 16 12 12 24 26 19 19 19 13 7 3 2 3 5 7 10 12 12 9 5 4 5 6 7 13 23 23 21 25 19 8 6 2 3 5 9 11 11 12 13 9 4 4 5 8 10 11 11 12 10 7 9 10 10 12 14 15 17 18 21 23 22 19 17 17 18 17 23 30 28 25 29 33 34
5 3 3 4 13 21 20 19 17 9 8 12 6 5 15 17 11 15 20 16 19 22 15 9 8 7 6 9 11 12 13 14 13 11 9 10 9 8 10 14 15 20 24 17 13 9 2 5 12 16 19 19 18 20 18 14 13 14 15 16 14 12 12 10 10 13 11 11 14 15 16 19 18 20 25 26 25 22 17 15 18 26 32 29 28 30 30 30
7 6 6 4 2 6 9 11 12 9 9 12 8 7 14 18 13 11 14 15 18 18 10 7 14 17 17 16 12 11 11 11 11 11 11 12 12 12 12 10 11 15 13 8 10 9 3 8 14 16 21 23 22 23 23 20 20 19 19 21 20 18 16 15 18 19 17 16 17 15 17 21 20 20 23 25 25 22 19 22 29 34 35 35 35 31 26 25
10 10 12 11 6 4 7 9 8 8 9 9 7 9 13 17 17 15 12 10 11 13 13 12 15 19 22 22 17 13 11 11 12 12 12 14 15 11 9 9 12 14 12 8 6 7 5 7 13 16 19 20 21 23 24 24 23 21 20 21 21 21 21 21 22 23 23 23 20 19 23 25 23 22 23 27 29 27 27 32 37 39 38 40 40 31 24 24
10 9 9 10 8 9 14 14 8 4 7 8 6 7 11 15 18 15 12 12 10 8 14 19 20 19 20 21 19 17 16 17 19 17 14 13 12 10 8 9 9 8 8 7 5 5 7 9 12 13 13 14 18 21 22 23 23 23 23 21 19 20 23 24 24 22 22 22 22 24 25 22 21 23 25 27 29 27 27 31 35 39 40 41 41 32 23 24
12 12 11 9 6 7 11 11 7 5 5 6 5 6 9 13 15 14 12 16 19 14 12 18 21 19 17 19 22 22 23 25 26 26 25 20 15 13 11 9 10 8 6 6 6 5 7 8 8 8 8 10 14 19 22 23 23 23 22 20 21 23 23 23 22 20 19 21 23 23 20 17 19 21 20 19 20 21 22 25 30 38 42 42 38 30 25 29
12 15 14 9 5 5 7 6 6 7 6 6 8 9 9 10 11 11 11 12 18 20 16 13 13 11 12 17 18 17 20 23 24 27 30 30 28 26 20 13 13 11 7 7 6 5 7 7 6 7 8 8 12 18 21 19 17 15 16 21 28 29 26 23 20 20 21 20 18 17 17 17 18 16 15 17 19 20 22 27 31 35 41 44 39 33 33 36
Wind_Direction
337 342 344 346 350 352 355 358 359 0 3 5 7 10 13 16 15 11 5 349 338 336 338 336 328 317 300 284 279 277 277 275 274 272 264 254 249 253 257 258 258 257 270 284 301 323 305 308 283 226 228 251 256 233 238 244 222 215 205 225 243 250 253 299 334 355 13 344 121 176 188 215 226 191 218 237 234 234 240 243 237 234 238 242 243 243 242 243
329 334 336 340 342 344 347 349 353 355 356 359 2 4 6 10 11 10 6 358 345 331 325 324 322 319 312 293 282 276 275 278 277 269 262 258 253 254 254 247 243 243 256 255 259 308 274 286 271 223 222 241 244 223 229 232 203 212 234 252 248 263 277 311 337 343 354 332 327 212 192 221 247 201 202 229 233 223 233 243 236 233 236 240 241 241 244 245
321 326 330 333 335 339 342 343 347 349 351 353 356 359 360 2 5 7 5 3 356 343 330 317 314 313 312 303 286 275 275 282 279 271 264 260 254 251 250 241 235 239 243 247 258 250 238 257 257 234 233 242 237 217 218 216 200 221 227 262 252 269 322 320 336 337 330 328 320 299 234 209 245 232 183 212 251 226 226 234 224 224 229 234 239 240 243 244
315 318 322 326 329 332 334 338 341 343 346 347 350 353 354 354 356 359 1 2 360 353 345 332 317 309 311 310 294 275 280 288 278 274 272 263 252 246 244 239 235 238 242 250 263 261 254 262 268 256 244 250 244 218 204 207 202 218 205 230 266 282 319 324 356 354 311 318 297 297 291 233 248 244 208 212 257 243 235 238 228 228 234 233 235 242 245 246
307 310 312 317 320 324 327 330 333 336 339 339 342 345 346 348 347 350 353 356 358 354 351 345 332 316 309 306 295 268 275 298 274 279 294 273 250 241 238 237 236 237 243 249 258 267 285 289 277 263 246 259 254 222 219 219 211 241 238 244 264 273 282 311 355 288 266 276 273 281 275 259 253 240 225 214 230 240 236 243 241 237 240 236 236 241 243 245
300 302 304 308 310 315 317 320 325 327 329 331 333 335 338 339 339 342 343 346 350 350 348 348 345 329 310 300 290 254 230 251 277 298 326 311 263 239 234 237 238 239 243 247 257 266 289 288 255 249 240 252 257 244 244 216 198 234 255 251 266 274 277 285 295 264 261 265 253 255 262 262 254 244 238 227 235 246 244 248 260 252 239 237 240 239 238 241
295 296 298 300 302 304 307 311 314 316 320 322 323 325 327 329 332 333 334 338 340 343 343 343 343 336 319 297 283 252 229 247 269 277 291 301 285 249 236 237 239 242 244 246 253 264 287 277 253 256 253 249 264 267 256 185 184 230 263 263 275 284 280 276 280 266 258 253 246 252 271 263 240 246 254 244 245 251 253 252 259 263 254 245 243 241 241 245
292 293 294 295 297 298 300 302 304 307 309 311 314 316 318 320 323 325 326 329 331 335 336 338 339 337 328 303 291 266 244 255 272 278 283 286 276 259 244 240 242 246 247 246 244 247 265 269 263 266 268 270 306 320 315 187 204 223 252 264 274 286 283 277 271 259 254 251 248 252 261 253 243 251 265 257 255 255 253 251 252 257 259 253 250 249 248 248
290 290 292 293 294 295 296 298 299 301 301 303 306 306 309 311 314 318 319 321 324 327 328 332 333 330 325 308 293 274 262 268 276 279 282 281 268 257 249 246 247 247 247 246 241 232 237 259 269 268 294 299 303 305 295 265 222 229 271 286 298 295 289 284 267 249 245 246 240 238 249 252 253 259 266 260 259 259 254 249 247 250 255 252 250 251 250 249
289 289 291 292 292 293 294 296 296 297 298 299 300 300 303 304 307 310 312 315 317 320 322 325 328 324 315 302 271 259 282 281 275 277 279 280 272 256 250 249 249 248 247 245 238 230 228 244 261 266 291 295 290 283 260 229 254 286 304 303 296 287 282 276 266 252 241 240 227 216 243 256 253 241 257 262 262 261 252 246 244 242 248 251 248 247 248 250
289 289 289 290 290 291 291 293 294 295 295 296 297 298 299 299 301 302 304 308 308 313 316 318 322 315 303 288 238 248 287 289 280 283 281 281 277 263 255 249 249 249 243 240 239 237 230 235 249 262 278 275 294 288 249 233 264 287 310 306 285 279 276 263 255 247 236 240 224 213 252 264 245 207 245 258 258 253 244 240 240 236 239 245 247 246 244 248
289 289 289 289 289 289 289 290 290 291 292 293 294 295 297 298 297 298 299 301 302 305 309 313 316 308 298 272 252 265 286 286 283 284 281 280 274 266 261 250 248 246 239 237 241 245 239 239 243 243 253 260 299 298 254 259 286 292 301 302 282 278 274 257 247 235 220 226 210 196 269 264 231 221 246 258 254 247 246 240 237 232 235 240 245 246 243 246
289 289 289 289 289 288 288 288 289 289 289 289 291 292 294 295 296 297 296 296 298 299 302 308 311 304 287 265 271 282 287 283 282 281 278 277 271 264 261 254 250 244 241 236 236 242 242 245 242 234 248 260 272 273 279 293 292 279 261 255 279 289 272 257 248 221 200 192 176 160 250 261 238 227 242 261 254 238 237 236 234 231 235 241 246 247 245 246
289 289 289 289 289 289 289 289 289 289 288 289 289 290 292 293 294 294 294 294 294 296 297 300 304 297 266 269 285 286 280 279 277 274 274 273 268 263 258 255 253 247 244 241 239 244 245 247 246 243 251 246 248 269 287 290 263 252 271 250 255 280 272 270 239 178 171 179 167 155 249 256 269 246 242 255 244 225 223 227 229 230 238 245 248 249 247 246
288 289 289 290 290 290 290 290 290 289 289 289 289 290 290 291 291 291 291 291 290 291 292 293 295 285 262 275 285 282 276 273 269 270 272 269 265 262 257 252 252 249 246 244 243 245 245 242 237 238 251 240 242 269 288 272 245 213 252 265 231 228 263 279 153 163 168 177 173 166 252 248 260 269 260 241 225 212 216 224 228 231 239 247 251 251 250 250
288 289 290 291 291 291 292 291 291 291 290 290 290 290 290 290 290 290 289 287 286 285 285 287 284 272 259 275 279 276 274 267 266 271 272 270 262 253 253 252 250 248 244 242 242 241 238 234 233 234 242 237 217 224 261 271 265 216 199 247 242 236 266 269 174 188 174 131 183 196 236 252 237 246 232 205 207 208 215 223 230 237 242 247 252 251 250 251
286 288 290 292 293 294 294 294 294 293 292 292 292 292 292 292 291 290 289 285 281 278 276 271 268 262 253 268 272 269 268 267 269 273 273 270 255 244 246 246 242 242 239 238 239 234 228 221 222 237 234 230 213 203 238 258 259 243 210 237 242 237 258 258 272 229 186 138 198 212 235 255 247 244 243 208 204 209 216 226 241 252 253 253 255 253 250 250
285 286 288 290 292 294 295 296 296 296 295 295 297 297 295 295 295 292 287 281 272 270 270 235 207 246 255 255 258 258 264 270 271 275 275 262 246 238 230 224 228 229 224 232 235 218 211 215 203 233 246 221 210 197 204 229 238 252 245 259 262 249 253 258 281 211 181 179 216 212 230 249 253 258 263 256 237 221 223 233 248 257 258 259 260 257 254 252
285 286 288 289 291 293 294 295 296 296 296 296 299 299 299 300 298 292 281 264 240 227 259 213 191 203 250 246 248 252 262 271 275 275 269 252 236 227 213 210 208 199 198 207 216 199 188 198 200 220 250 222 207 204 213 231 240 258 266 269 271 272 270 265 273 189 178 196 219 217 230 248 253 246 249 258 257 246 240 238 243 251 255 259 261 259 256 254
286 288 290 291 291 294 294 295 296 297 298 297 300 303 306 307 302 293 265 243 238 244 258 237 215 229 244 251 256 258 263 269 272 267 265 252 228 217 208 204 195 201 216 198 183 187 181 186 206 221 239 229 213 216 223 235 243 255 264 266 266 271 270 269 276 209 185 196 221 225 233 247 255 250 241 252 259 259 255 250 246 250 255 258 261 261 259 256
288 289 290 292 293 296 296 296 297 298 300 300 304 310 308 296 287 286 272 264 266 266 264 257 242 241 246 250 252 257 262 266 264 257 260 243 212 205 199 194 184 206 221 216 208 186 188 209 220 227 242 244 237 236 235 240 244 251 256 265 272 265 266 273 279 200 180 196 237 240 245 253 256 257 251 250 253 254 254 257 256 256 260 263 265 263 261 260
296 294 295 296 297 302 301 300 300 299 302 301 304 305 282 277 275 272 280 282 276 270 263 259 249 242 245 246 249 255 255 256 254 247 247 228 203 198 191 184 196 214 194 205 225 218 214 230 233 238 250 256 256 254 252 257 257 261 265 277 274 267 275 279 270 181 161 183 243 252 255 260 264 260 255 250 247 249 251 254 258 259 261 264 267 264 261 257
306 305 305 305 309 313 308 307 307 303 304 301 300 295 281 282 278 275 279 277 275 269 258 252 244 241 243 243 247 250 244 244 246 242 243 227 197 196 196 183 208 225 186 192 210 224 229 228 233 243 252 253 255 247 237 262 263 247 248 261 263 260 269 277 255 177 181 208 241 269 269 265 271 266 258 252 248 250 252 252 256 260 260 261 264 264 261 248
314 315 313 316 321 324 321 319 316 314 316 313 307 298 288 285 279 288 289 268 272 266 257 253 242 239 242 243 247 244 237 241 242 241 240 221 192 195 207 201 215 228 219 215 218 231 243 237 223 234 240 238 246 242 224 247 258 236 217 228 252 255 251 256 257 212 211 231 237 297 289 262 251 254 255 249 243 245 248 247 251 255 257 261 262 261 255 243
319 319 319 323 328 333 332 326 326 334 332 328 326 312 304 297 279 308 315 276 258 238 246 248 235 237 239 238 239 233 235 242 238 238 233 213 195 189 203 206 212 229 227 228 233 241 248 243 226 220 223 220 229 240 217 214 257 257 211 217 241 254 256 260 275 306 307 268 222 78 292 265 212 230 249 244 219 230 238 235 242 246 248 254 259 260 254 242
317 319 322 323 328 338 336 332 334 335 331 322 328 316 297 290 271 318 338 285 260 193 191 215 214 229 228 225 221 211 235 252 233 232 224 209 203 195 195 199 206 234 226 226 243 247 241 224 213 212 219 220 225 249 226 206 256 271 222 219 242 254 261 262 274 284 255 263 243 112 313 284 246 224 241 230 195 217 226 225 238 245 243 242 249 259 258 242
310 314 317 318 324 333 333 331 328 332 335 317 322 316 271 236 240 333 4 286 264 158 144 181 185 193 197 201 193 182 231 242 199 212 204 202 204 200 213 200 198 230 205 193 260 238 188 171 164 200 214 218 223 245 229 198 234 267 261 249 249 256 263 259 260 242 232 289 276 151 137 277 276 244 219 213 207 227 230 227 239 247 248 241 240 251 255 245
303 307 309 311 316 321 323 324 326 334 330 313 313 277 217 175 163 15 8 282 255 128 136 180 178 194 184 172 180 182 299 104 143 198 195 196 197 197 224 226 225 231 162 178 240 259 153 181 197 200 193 216 223 240 226 185 211 253 30 42 75 74 304 306 256 250 280 321 267 182 150 251 280 254 185 198 204 223 229 228 237 245 251 247 238 242 248 246
295 298 301 303 307 309 312 314 321 331 322 316 305 231 176 167 231 22 261 261 197 126 143 166 172 195 166 151 188 209 266 86 152 188 184 195 195 190 236 241 253 268 232 220 236 264 316 169 226 190 181 227 219 6 19 166 206 218 125 66 70 63 11 48 253 269 338 282 242 190 160 225 276 260 160 190 205 217 225 225 233 242 249 251 244 238 237 238
287 290 293 294 297 300 304 305 309 324 328 319 271 196 158 177 244 19 236 250 337 112 127 150 171 159 148 135 207 223 223 173 114 126 150 193 199 201 275 283 271 279 270 267 262 263 227 80 21 212 194 207 126 81 31 95 171 172 131 67 51 302 20 49 254 92 330 268 236 190 182 199 267 261 152 182 196 200 209 213 228 241 247 251 249 236 226 227
280 283 284 284 288 292 294 295 298 311 326 318 243 173 156 197 84 224 234 263 6 179 124 150 176 142 158 175 199 200 204 213 143 144 164 175 191 207 250 258 201 301 299 285 271 266 242 139 13 233 184 132 104 106 54 67 133 130 118 105 16 302 16 33 300 103 240 267 223 180 188 192 234 254 154 201 199 190 198 202 215 229 239 244 245 233 224 223
275 275 277 278 280 281 278 279 286 296 310 306 196 172 174 296 231 234 232 55 34 203 143 164 175 160 189 209 211 165 172 204 170 172 195 162 177 201 206 207 166 143 274 245 245 257 245 229 205 186 194 177 161 126 33 359 257 143 134 137 126 286 312 331 251 144 226 258 234 176 182 199 235 242 213 239 220 194 204 206 206 212 222 233 233 224 221 222
270 270 272 271 269 271 271 273 278 280 286 269 178 161 36 225 235 240 217 175 251 175 78 136 173 181 190 199 218 166 173 217 167 181 205 171 197 218 212 221 202 230 252 220 249 237 264 262 190 161 254 194 176 180 220 265 189 179 161 148 166 208 248 250 240 241 244 259 280 174 176 217 265 243 205 224 226 200 204 212 212 210 215 228 228 219 217 218
268 266 266 268 268 267 267 268 267 266 265 230 168 118 97 225 244 268 177 211 240 246 38 65 154 186 203 210 197 154 183 237 157 173 198 166 196 228 210 218 218 235 263 253 284 199 252 285 189 163 204 181 181 209 217 169 162 198 175 158 195 194 210 240 231 246 261 278 292 177 172 215 275 214 195 208 220 205 198 208 218 224 228 235 230 215 213 217
273 269 267 269 267 262 261 260 259 258 245 205 152 118 190 226 252 274 255 249 255 238 196 47 160 184 222 228 198 175 205 230 164 166 195 187 203 218 197 196 201 206 181 212 256 180 236 273 196 154 148 162 180 227 217 116 101 220 148 162 232 206 194 242 255 247 273 317 272 221 212 232 252 255 221 210 221 214 201 206 217 227 231 230 219 210 214 220
273 272 272 272 266 260 257 254 256 254 235 190 137 182 207 220 229 206 264 266 252 237 140 246 215 193 233 225 194 209 215 221 180 167 200 215 227 227 203 177 189 195 190 193 220 191 234 277 156 115 30 153 171 253 200 154 229 198 136 196 237 171 170 223 270 273 272 282 272 256 249 267 301 276 239 212 212 212 202 206 214 223 225 221 214 214 221 226
267 266 268 267 266 265 258 252 251 243 218 178 156 211 209 227 226 219 281 316 307 301 174 212 212 183 223 233 201 203 193 194 189 172 183 209 229 223 212 212 192 192 202 204 217 244 236 264 228 162 312 264 316 331 292 204 114 126 172 239 296 19 57 184 264 308 270 256 272 274 269 277 290 279 249 187 203 207 198 205 215 219 219 216 216 223 232 235
267 266 266 266 266 266 261 254 242 219 192 167 207 226 213 225 218 219 258 287 307 308 275 246 223 191 223 249 235 188 172 187 180 172 200 208 215 197 187 213 200 193 206 208 218 268 226 257 265 174 36 346 17 327 281 357 88 133 209 294 51 93 263 190 185 233 248 254 271 277 279 277 254 262 289 198 201 201 196 207 214 214 212 214 221 229 237 239
270 267 270 272 269 264 261 251 224 195 173 167 216 223 221 232 228 228 245 253 255 260 261 256 242 232 242 254 261 200 176 194 180 175 207 207 222 200 174 195 207 199 204 200 207 245 182 230 257 331 357 343 17 239 190 228 40 103 9 342 72 178 195 190 204 212 224 243 266 277 283 279 249 248 258 217 197 196 199 206 211 210 211 214 222 231 237 238
272 259 263 271 274 273 252 229 199 177 173 207 211 222 238 248 248 238 239 245 247 247 251 251 249 250 250 254 266 249 199 202 192 198 211 200 230 229 179 187 202 206 205 197 202 209 147 229 235 277 341 277 226 196 178 186 202 177 236 251 224 213 182 242 254 232 219 235 251 260 271 274 263 194 221 198 181 192 196 198 208 212 216 218 223 233 238 242
272 250 254 262 278 266 209 194 176 175 209 233 225 237 244 262 285 259 248 249 259 283 287 265 259 266 274 266 262 257 229 215 210 216 221 215 233 251 175 195 210 178 173 175 206 195 146 223 226 211 232 235 234 202 191 201 205 193 205 214 215 207 196 257 254 231 223 234 239 243 261 267 265 79 118 177 182 200 195 190 206 211 220 225 228 236 244 249
260 248 257 256 259 192 183 176 175 214 205 222 240 246 244 250 265 266 264 260 258 275 307 305 262 254 272 271 265 270 267 236 220 222 231 231 228 228 41 39 38 60 96 149 223 218 142 179 224 228 231 250 270 225 176 219 249 251 237 220 218 204 191 226 243 244 246 235 236 245 254 259 265 52 49 147 169 189 178 173 195 212 224 232 237 243 249 253
245 247 249 251 241 198 183 176 248 219 217 258 257 259 250 242 245 249 250 246 241 244 239 251 260 250 246 253 259 263 255 239 224 228 246 259 243 239 61 51 34 31 91 207 228 211 137 148 222 241 264 288 290 293 305 352 5 269 265 242 221 217 216 230 242 256 258 241 241 251 250 259 272 75 191 192 163 186 201 204 220 231 238 246 250 249 251 256
254 258 246 238 223 197 187 184 219 214 234 247 253 255 247 245 242 235 236 228 218 204 216 233 238 239 241 247 254 252 243 247 249 252 263 280 275 270 276 285 288 288 204 243 235 170 208 229 219 241 267 286 292 291 280 285 75 225 243 239 236 239 243 252 258 259 255 246 247 253 253 261 271 231 204 217 227 247 252 242 237 243 256 261 261 261 261 262
262 263 242 224 207 199 205 221 221 221 220 224 235 238 240 246 231 229 236 236 226 213 212 231 225 220 226 234 251 246 234 241 259 277 274 265 273 275 271 268 267 256 244 245 198 120 215 217 122 192 223 231 245 255 245 197 135 220 235 236 241 243 243 250 256 248 247 242 240 248 256 262 271 269 261 259 257 261 269 269 269 274 274 270 269 270 268 263
264 249 228 212 202 205 220 228 228 234 215 220 233 226 229 239 230 228 233 238 237 229 225 229 206 184 211 217 240 248 240 239 237 228 220 224 248 263 255 255 254 250 252 242 179 133 181 182 182 205 215 222 231 239 240 217 209 237 243 235 233 236 238 241 244 243 251 255 246 248 256 262 269 274 275 274 272 272 276 282 289 286 281 279 274 271 268 262
279 258 210 200 204 215 231 231 230 234 208 213 215 192 224 235 237 230 224 223 231 230 230 229 208 205 218 217 232 244 240 240 237 231 231 229 237 251 250 254 252 248 251 236 187 167 167 207 212 217 222 226 232 240 247 248 242 241 244 243 238 232 231 234 240 240 246 259 254 247 257 265 266 267 272 276 277 277 278 282 284 280 280 283 280 273 268 262
252 264 253 270 244 216 230 233 238 245 227 218 211 205 227 233 232 225 219 224 227 218 217 226 213 216 223 222 229 238 232 239 240 230 233 235 241 254 255 254 246 235 233 220 193 179 183 227 221 221 227 228 229 237 242 246 247 242 241 245 246 243 237 236 242 241 235 242 249 246 249 257 258 257 263 270 274 278 282 282 280 280 282 284 281 275 269 263
245 265 270 278 290 282 281 283 278 265 251 245 234 223 232 236 234 228 220 232 235 211 210 229 221 217 222 224 228 232 226 235 239 228 225 228 228 237 250 248 240 224 205 198 199 179 186 226 220 222 232 229 227 233 237 241 248 248 245 243 246 250 250 246 246 243 239 242 249 251 250 252 255 258 259 263 269 276 282 282 279 280 281 281 279 276 270 265
249 264 286 296 298 297 292 287 291 289 263 261 257 243 249 252 250 247 231 230 242 213 206 228 234 224 222 224 227 233 228 228 237 236 226 225 222 221 233 235 231 222 200 198 207 191 205 224 218 221 236 233 227 232 235 236 242 247 249 249 249 253 254 251 247 244 244 248 248 248 251 254 256 257 258 262 268 274 278 278 276 277 278 277 276 276 274 269
256 267 289 308 304 290 285 273 264 271 256 240 244 253 261 259 259 267 262 248 253 252 229 235 242 238 235 233 229 235 236 233 239 241 236 235 231 216 214 214 212 209 192 194 205 191 204 230 230 227 243 236 225 231 235 236 238 241 245 251 251 247 245 244 242 240 241 247 249 250 252 253 252 255 258 262 266 268 269 270 271 273 272 272 273 275 274 270
272 276 281 294 293 263 273 277 266 267 262 247 251 255 256 263 267 273 277 264 256 260 266 271 273 269 257 247 245 259 268 264 264 264 258 258 254 242 234 223 210 206 186 184 204 192 191 217 224 222 242 240 224 230 236 237 240 237 230 234 239 241 243 244 245 246 243 242 245 246 245 246 250 256 261 262 259 257 256 258 261 266 269 270 274 277 275 270